Flight Track Log - Related Links

Times and Time Zones

All times are in EST time to prevent confusion due to time zone crossing. See the N6ZQ flight status page for this flight to view local times or setup timezone preferences in your user account.

Time Position Orientation Groundspeed Altitude Reporting Facility
EST Latitude Longitude Course Direction KTS MPH feet Rate Location/Type
Sat 02:41:04 PM 29.4703 -81.1989 67° East 104 120 500  Level Jacksonville Center
Sat 02:41:41 PM 29.4783 -81.1772 67° East 128 147 1,400 857 Climbing Jacksonville Center
Sat 02:42:42 PM 29.5008 -81.1364 58° Northeast 163 188 1,900 344 Climbing Jacksonville Center
Sat 02:43:43 PM 29.5272 -81.0953 54° Northeast 151 174 2,100 328 Climbing Jacksonville Center
Sat 02:44:50 PM 29.5628 -81.0875 11° North 175 201 2,600 516 Climbing Jacksonville Center
Sat 02:45:51 PM 29.5781 -81.1444 287° West 189 217 3,200 1,138 Climbing Jacksonville Center
Sat 02:46:46 PM 29.5933 -81.1944 289° West 172 198 4,800 931 Climbing Jacksonville Center
Sat 02:47:47 PM 29.6089 -81.2539 287° West 191 220 5,000 98 Climbing Jacksonville Center
Sat 02:48:48 PM 29.6264 -81.3133 289° West 195 224 5,000  Level Jacksonville Center
Sat 02:49:43 PM 29.6394 -81.3681 285° West 197 227 5,000  Level Jacksonville Center
Sat 02:50:50 PM 29.6528 -81.4322 283° West 188 216 5,000 47 Level Jacksonville Center
Sat 02:51:50 PM 29.6658 -81.4872 285° West 188 216 5,100 63 Climbing Jacksonville Center
Sat 02:52:26 PM 29.6767 -81.5228 289° West 186 214 5,100  Level Jacksonville Center
Sat 02:53:33 PM 29.7067 -81.5822 300° West 184 212 5,100 -47 Level Jacksonville Center
Sat 02:54:35 PM 29.7342 -81.6369 300° West 187 215 5,000 -341 Descending Jacksonville Center
Sat 02:55:36 PM 29.7619 -81.6939 299° West 207 238 4,400 -414 Descending Jacksonville Center
Sat 02:56:31 PM 29.7875 -81.7486 298° West 215 247 4,200 -157 Descending Jacksonville Center
Sat 02:57:31 PM 29.8150 -81.8081 298° West 205 236 4,100 -50 Descending Jacksonville Center
Sat 02:58:32 PM 29.8364 -81.8678 292° West 202 232 4,100  Level Jacksonville Center
Sat 02:59:28 PM 29.8578 -81.9228 294° West 208 239 4,100 -53 Level Jacksonville Center
Sat 03:00:25 PM 29.8833 -81.9750 299° West 215 247 4,000 -51 Descending Jacksonville Center
Sat 03:01:25 PM 29.9086 -82.0325 297° West 215 247 4,000  Level Jacksonville Center
Sat 03:02:25 PM 29.9383 -82.0897 301° West 215 247 4,000  Level Jacksonville Center
Sat 03:03:25 PM 29.9700 -82.1444 304° West 215 247 4,000  Level Jacksonville Center
Sat 03:04:25 PM 29.9994 -82.2019 301° West 205 236 4,000 50 Level Jacksonville Center
Sat 03:05:25 PM 30.0289 -82.2567 302° West 205 236 4,100 50 Climbing Jacksonville Center
Sat 03:06:25 PM 30.0544 -82.3167 296° West 205 236 4,100 -100 Level Jacksonville Center
Sat 03:07:25 PM 30.0797 -82.3742 297° West 205 236 3,900 -550 Descending Jacksonville Center
Sat 03:08:25 PM 30.1092 -82.4364 299° West 205 236 3,000 -900 Descending Jacksonville Center

Login

Don't have an account? Register now (free) for customized features, flight alerts, and more!